Tracking 29033 objects as of 22-Jun-2024
HD Live streaming from Space Station
objects crossing your sky now

OBJECT J

Track OBJECT J now!
10-day predictions
OBJECT J is classified as:


NORAD ID: 59059
Int'l Code: 2024-039J
Perigee: 476.5 km
Apogee: 499.2 km
Inclination: 97.4 °
Period: 94.2 minutes
Semi major axis: 6858 km
RCS: Unknown
Launch date: February 29, 2024
Source: (TBD)
Launch site: VOSTOCHNY COSMODROME (VOSTO)

Uplink (MHz):
Downlink (MHz): 401.140
Beacon (MHz):
Mode: 2k4 GMSK_USP
Call sign:
Status: Unknown


Note: This is a ROCKET BODY
Your satellite tracking list
Your tracking list is empty




NASA's NSSDC Master Catalog

Two Line Element Set (TLE):
1 59059U 24039J   24174.17860435  .00016783  00000-0  60729-3 0  9990
2 59059  97.3918 136.1943 0016547 190.9299 169.1584 15.28359658 17369
Source of the keplerian elements: AFSPC